Location: Bad Salzschlirf
(50.3750°N, 9.3000°E)
Time: 00:22:26
(UTC+02:00)

ISS - Visible Passes

Search period start: 22 October 2019 00:00
Search period end: 31 October 2019 23:00
Orbit: 411 x 421 km, 51.6° (Epoch: 21 October)

Date Brightness Start Highest point End Pass type
(mag) Time Alt. Az. Time Alt. Az. Time Alt. Az.
24 Oct -0.6 06:50:50 10° SSE 06:52:01 11° SE 06:53:13 10° ESE visible
26 Oct -1.5 06:48:23 10° SSW 06:51:09 24° SE 06:53:56 10° E visible
27 Oct -1.1 05:00:46 11° S 05:02:43 16° SE 05:04:55 10° E visible
28 Oct -0.6 04:14:37 11° SE 04:14:37 11° SE 04:15:09 10° ESE visible
28 Oct -2.9 05:47:33 13° SW 05:50:24 46° SSE 05:53:39 10° E visible
29 Oct -2.4 05:01:15 30° S 05:01:52 32° SSE 05:04:55 10° E visible
30 Oct -0.9 04:14:49 17° ESE 04:14:49 17° ESE 04:16:04 10° E visible
30 Oct -3.7 05:47:44 22° WSW 05:49:45 80° SSE 05:53:07 10° ENE visible
31 Oct -3.4 05:01:13 60° SE 05:01:13 60° SE 05:04:27 10° ENE visible
31 Oct -3.7 06:34:30 10° W 06:37:52 69° N 06:41:13 10° E visible
